EW7356 Weather Reports


Display with metric or nautical units.
time (UTC)temp
F
wind
direction
speed
MPH
gust
MPH
rain 1hr
in
rain 24hr
in
rain mn
in
humidity
%
barometer
mb
20260503055028 36 277 3.0 7.0 0.00 0.37 0.00 94 1008.0
20260503054551 36 276 2.0 6.0 0.00 0.37 0.00 94 1008.3
20260503054029 36 248 2.0 6.0 0.00 0.37 0.00 94 1008.3
20260503053530 36 259 2.0 5.0 0.00 0.37 0.00 94 1008.3
20260503053041 36 268 1.0 6.0 0.00 0.37 0.00 95 1008.4
20260503052530 36 257 1.0 6.0 0.00 0.37 0.00 95 1008.3
20260503052030 36 284 1.0 6.0 0.00 0.37 0.00 95 1008.6
20260503051548 36 277 2.0 6.0 0.00 0.37 0.00 95 1008.6
20260503051029 36 254 2.0 6.0 0.00 0.37 0.00 95 1008.5
20260503050529 36 306 1.0 4.0 0.00 0.37 0.00 94 1008.6
20260503050040 36 262 0.0 3.0 0.00 0.37 0.00 94 1008.6
20260503045530 36 292 0.0 3.0 0.00 0.37 0.00 94 1008.6
20260503045030 36 0 0.0 2.0 0.00 0.37 0.00 94 1008.6
20260503044535 36 0 0.0 2.0 0.00 0.37 0.00 94 1008.8
20260503044028 36 307 0.0 2.0 0.00 0.37 0.00 94 1008.9
20260503043529 36 0 0.0 2.0 0.00 0.37 0.00 94 1009.0
20260503043033 36 307 0.0 4.0 0.00 0.37 0.00 94 1009.0
20260503042529 37 0 0.0 4.0 0.00 0.37 0.00 94 1009.0
20260503042029 37 330 1.0 4.0 0.00 0.37 0.00 94 1009.0
20260503041539 37 322 1.0 3.0 0.00 0.37 0.00 94 1009.1
20260503041030 37 319 0.0 3.0 0.00 0.37 0.00 94 1009.1
20260503040532 37 0 0.0 3.0 0.00 0.37 0.00 94 1009.2
20260503040044 37 279 1.0 3.0 0.00 0.37 0.00 94 1009.2
20260503035529 37 277 0.0 3.0 0.00 0.37 0.37 94 1009.1
20260503035030 37 272 0.0 3.0 0.00 0.37 0.37 94 1009.1
20260503034543 37 0 0.0 2.0 0.00 0.37 0.37 93 1009.3
20260503034029 37 0 0.0 3.0 0.00 0.37 0.37 93 1009.3
20260503033530 38 309 0.0 3.0 0.00 0.37 0.37 94 1009.4
20260503033050 38 0 1.0 2.0 0.00 0.37 0.37 94 1009.3
20260503032529 38 0 0.0 4.0 0.00 0.37 0.37 94 1009.4
20260503032029 38 0 0.0 4.0 0.00 0.37 0.37 94 1009.4
20260503031541 38 322 0.0 4.0 0.00 0.37 0.37 94 1009.4
20260503031029 38 304 0.0 3.0 0.00 0.37 0.37 94 1009.5
20260503030529 39 323 0.0 5.0 0.00 0.37 0.37 94 1009.6
20260503030043 39 0 1.0 5.0 0.00 0.37 0.37 94 1009.6
20260503025530 39 336 1.0 6.0 0.00 0.37 0.37 94 1009.6
20260503025031 39 309 2.0 6.0 0.00 0.37 0.37 94 1009.5
20260503024547 39 279 1.0 4.0 0.00 0.37 0.37 94 1009.8
20260503024033 39 267 1.0 3.0 0.01 0.37 0.37 94 1009.8
20260503023531 39 0 0.0 3.0 0.01 0.37 0.37 94 1009.8
20260503023045 40 0 1.0 5.0 0.02 0.37 0.37 94 1009.9
20260503022531 40 0 0.0 5.0 0.04 0.37 0.37 94 1010.0
20260503022033 40 327 0.0 5.0 0.06 0.37 0.37 94 1010.0
20260503021540 40 0 1.0 4.0 0.10 0.37 0.37 94 1010.0
20260503021031 40 355 0.0 3.0 0.10 0.37 0.37 94 1009.9
20260503020533 40 335 0.0 3.0 0.10 0.37 0.37 93 1009.9
20260503020044 40 346 0.0 3.0 0.10 0.37 0.37 94 1009.9
20260503015531 40 306 0.0 4.0 0.10 0.37 0.37 94 1009.9
20260503015033 40 326 0.0 4.0 0.10 0.37 0.37 94 1009.9
20260503014551 41 340 0.0 2.0 0.10 0.37 0.37 94 1009.9
20260503014030 41 0 0.0 4.0 0.09 0.36 0.36 94 1010.0
20260503013531 41 0 0.0 4.0 0.09 0.36 0.36 93 1010.1
20260503013039 41 323 1.0 5.0 0.08 0.35 0.35 93 1010.0
20260503012533 41 336 2.0 12.0 0.06 0.33 0.33 93 1010.0
20260503012033 41 323 3.0 12.0 0.03 0.30 0.30 94 1009.8
20260503011553 42 271 1.0 6.0 0.00 0.27 0.27 94 1009.7
20260503011032 42 0 0.0 2.0 0.00 0.27 0.27 94 1009.4
20260503010530 42 106 0.0 2.0 0.00 0.27 0.27 94 1009.4
20260503010037 42 106 0.0 2.0 0.00 0.27 0.27 94 1009.5
20260503005530 42 106 0.0 2.0 0.00 0.27 0.27 94 1009.4
20260503005030 42 0 0.0 1.0 0.00 0.27 0.27 93 1009.4
20260503004541 42 0 0.0 1.0 0.00 0.27 0.27 93 1009.4
20260503004030 42 106 0.0 1.0 0.00 0.27 0.27 93 1009.4
20260503003530 42 0 0.0 1.0 0.00 0.27 0.27 93 1009.2
20260503003041 43 0 0.0 1.0 0.00 0.27 0.27 93 1009.1
20260503002529 43 0 0.0 0.0 0.00 0.27 0.27 93 1009.1
20260503002029 43 0 0.0 0.0 0.00 0.27 0.27 93 1009.1
20260503001556 43 0 0.0 0.0 0.00 0.27 0.27 93 1009.0
20260503001029 43 0 0.0 1.0 0.00 0.27 0.27 93 1009.1
20260503000530 44 0 0.0 1.0 0.00 0.27 0.27 93 1009.0
20260503000056 44 0 0.0 1.0 0.00 0.27 0.27 93 1009.0
20260502235529 44 0 0.0 1.0 0.00 0.27 0.27 93 1009.0
20260502235030 44 0 0.0 1.0 0.00 0.27 0.27 93 1008.9
20260502234606 44 0 0.0 1.0 0.00 0.27 0.27 93 1009.0
20260502234030 44 0 0.0 1.0 0.00 0.27 0.27 93 1009.0
20260502233530 44 0 0.0 1.0 0.00 0.27 0.27 93 1008.9
20260502233043 44 0 0.0 1.0 0.00 0.27 0.27 93 1008.9
20260502232529 44 106 0.0 2.0 0.00 0.27 0.27 93 1008.9
20260502232032 44 0 0.0 2.0 0.00 0.27 0.27 93 1009.0
20260502231541 45 0 0.0 1.0 0.00 0.27 0.27 93 1008.9
20260502231029 45 0 0.0 1.0 0.00 0.27 0.27 93 1008.9
20260502230530 45 106 0.0 2.0 0.00 0.27 0.27 92 1008.9
20260502230038 45 0 0.0 2.0 0.00 0.27 0.27 92 1008.8
20260502225529 45 106 0.0 2.0 0.00 0.27 0.27 92 1008.9
20260502225029 45 0 0.0 2.0 0.00 0.27 0.27 91 1008.8
20260502224538 45 0 0.0 2.0 0.00 0.27 0.27 91 1008.8
20260502224031 45 0 0.0 2.0 0.00 0.27 0.27 91 1008.8
20260502223531 45 0 0.0 2.0 0.00 0.27 0.27 90 1008.7
20260502223033 45 68 1.0 2.0 0.00 0.27 0.27 89 1008.6
20260502222529 46 0 0.0 2.0 0.00 0.27 0.27 89 1008.7
20260502222029 46 68 0.0 2.0 0.00 0.27 0.27 89 1008.7
20260502221541 46 0 0.0 3.0 0.00 0.27 0.27 89 1008.5
20260502221030 46 0 0.0 3.0 0.00 0.27 0.27 89 1008.5
20260502220531 46 68 1.0 3.0 0.00 0.27 0.27 89 1008.6
20260502220039 46 81 0.0 2.0 0.00 0.27 0.27 89 1008.6
20260502215534 46 0 0.0 2.0 0.00 0.27 0.27 89 1008.6
20260502215030 46 0 0.0 3.0 0.00 0.27 0.27 89 1008.6
20260502214540 46 0 1.0 3.0 0.00 0.27 0.27 88 1008.6
20260502214035 46 73 0.0 3.0 0.00 0.27 0.27 89 1008.6
20260502213531 46 71 0.0 3.0 0.00 0.27 0.27 89 1008.6
20260502213045 46 67 0.0 3.0 0.00 0.27 0.27 90 1008.6
20260502212531 46 0 0.0 3.0 0.00 0.27 0.27 89 1008.7
20260502212031 46 0 1.0 4.0 0.00 0.27 0.27 88 1008.6
20260502211544 46 0 0.0 4.0 0.00 0.27 0.27 89 1008.8
20260502211030 46 0 0.0 4.0 0.00 0.27 0.27 88 1008.7
20260502210530 46 78 1.0 5.0 0.01 0.27 0.27 89 1008.6
20260502210044 47 36 1.0 5.0 0.01 0.27 0.27 88 1008.5
20260502205530 47 23 1.0 3.0 0.02 0.27 0.27 89 1008.7
20260502205030 47 65 1.0 3.0 0.02 0.27 0.27 91 1008.6
20260502204539 47 75 1.0 3.0 0.02 0.27 0.27 90 1008.6
20260502204034 46 0 1.0 3.0 0.03 0.27 0.27 89 1008.6
20260502203534 46 360 1.0 4.0 0.03 0.27 0.27 88 1008.7
20260502203046 47 355 1.0 8.0 0.03 0.27 0.27 88 1008.6
20260502202530 47 312 2.0 8.0 0.03 0.27 0.27 88 1008.6
20260502202030 47 352 3.0 8.0 0.04 0.27 0.27 92 1008.6
20260502201540 46 309 2.0 5.0 0.05 0.27 0.27 93 1008.6
20260502201031 45 331 2.0 5.0 0.05 0.27 0.27 91 1008.6
20260502200530 45 5 2.0 5.0 0.04 0.26 0.26 91 1008.6
20260502200035 45 22 1.0 4.0 0.03 0.25 0.25 91 1009.0
20260502195529 45 323 0.0 4.0 0.04 0.25 0.25 92 1009.0
20260502195030 45 5 1.0 3.0 0.04 0.25 0.25 91 1008.9
20260502194542 45 196 0.0 2.0 0.04 0.25 0.25 91 1009.0
20260502194028 45 0 0.0 3.0 0.03 0.24 0.24 90 1009.0
20260502193532 46 196 1.0 4.0 0.03 0.24 0.24 90 1009.0
20260502193056 46 161 0.0 5.0 0.03 0.24 0.24 91 1009.0
20260502192533 46 160 2.0 5.0 0.03 0.24 0.24 91 1008.9
20260502192030 46 148 1.0 5.0 0.02 0.23 0.23 91 1008.8
20260502191550 46 165 1.0 6.0 0.01 0.22 0.22 91 1008.8
20260502191029 46 163 1.0 6.0 0.01 0.22 0.22 90 1008.9
20260502190529 46 0 0.0 3.0 0.01 0.22 0.22 91 1008.9
20260502190044 46 133 1.0 3.0 0.01 0.22 0.22 89 1009.0
20260502185534 46 146 0.0 2.0 0.00 0.21 0.21 88 1009.1
20260502185029 47 0 0.0 2.0 0.00 0.21 0.21 88 1009.0
20260502184545 47 150 1.0 3.0 0.00 0.21 0.21 86 1009.2
20260502184029 48 145 0.0 4.0 0.00 0.21 0.21 86 1009.1
20260502183529 48 122 1.0 5.0 0.00 0.21 0.21 86 1009.1
20260502183044 48 150 0.0 5.0 0.00 0.21 0.21 87 1009.2
20260502182529 49 116 2.0 5.0 0.00 0.21 0.21 89 1009.2
20260502182031 48 142 2.0 5.0 0.01 0.21 0.21 85 1009.3
20260502181543 48 337 1.0 3.0 0.01 0.21 0.21 91 1009.3
20260502181030 47 0 1.0 4.0 0.01 0.21 0.21 86 1009.3
20260502180527 46 161 2.0 4.0 0.01 0.21 0.21 89 1009.4
20260502164029 44 129 0.0 5.0 0.03 0.20 0.20 94 1009.4
20260502163529 44 154 1.0 4.0 0.03 0.20 0.20 94 1009.6
20260502163039 44 65 1.0 4.0 0.02 0.19 0.19 95 1009.5
20260502162531 44 0 0.0 3.0 0.03 0.19 0.19 95 1009.5
20260502162029 43 141 0.0 3.0 0.04 0.19 0.19 94 1009.6
20260502161542 43 76 0.0 3.0 0.05 0.19 0.19 94 1009.7
20260502161029 44 105 0.0 2.0 0.06 0.19 0.19 95 1009.7
20260502160529 43 87 0.0 2.0 0.05 0.18 0.18 95 1009.7
20260502152029 42 0 0.0 3.0 0.01 0.14 0.14 94 1010.0
20260502151556 42 0 0.0 4.0 0.01 0.14 0.14 94 1010.0
20260502151029 42 69 1.0 4.0 0.00 0.13 0.13 94 1010.1
20260502150531 42 65 1.0 4.0 0.00 0.13 0.13 94 1010.0
20260502130530 41 0 0.0 2.0 0.00 0.12 0.12 95 1010.3
20260502123526 41 0 0.0 1.0 0.01 0.12 0.12 95 1010.6
20260502123042 41 0 0.0 2.0 0.01 0.12 0.12 95 1010.7
20260502122527 41 98 0.0 2.0 0.01 0.12 0.12 95 1010.4
20260502122034 40 0 0.0 4.0 0.01 0.12 0.12 95 1010.5
20260502121538 40 0 1.0 4.0 0.01 0.12 0.12 95 1010.4
20260502121030 40 0 0.0 2.0 0.01 0.12 0.12 95 1010.5
20260502120529 40 64 0.0 3.0 0.01 0.12 0.12 95 1010.4
20260502115530 40 70 1.0 3.0 0.01 0.12 0.12 95 1010.3
20260502115028 40 0 0.0 2.0 0.00 0.11 0.11 95 1010.3
20260502114536 40 67 0.0 2.0 0.00 0.11 0.11 95 1010.4
20260502114027 40 0 0.0 2.0 0.00 0.11 0.11 95 1010.4
20260502113530 40 0 0.0 2.0 0.00 0.11 0.11 95 1010.2
20260502113045 40 67 0.0 2.0 0.00 0.11 0.11 95 1010.5
20260502112529 40 0 0.0 2.0 0.00 0.11 0.11 94 1010.4
20260502112031 40 67 0.0 2.0 0.00 0.11 0.11 94 1010.6
20260502111540 40 0 0.0 1.0 0.00 0.11 0.11 95 1010.6
20260502111026 40 0 0.0 2.0 0.00 0.11 0.11 95 1010.4
20260502110526 40 0 0.0 2.0 0.00 0.11 0.11 95 1010.3
20260502110046 40 0 0.0 2.0 0.00 0.11 0.11 95 1010.1
20260502105527 40 0 0.0 0.0 0.00 0.11 0.11 95 1009.9
20260502105028 40 0 0.0 0.0 0.00 0.11 0.11 95 1009.8
20260502104538 40 0 0.0 0.0 0.00 0.11 0.11 95 1010.0
20260502104030 40 0 0.0 0.0 0.00 0.11 0.11 95 1010.0
20260502103532 40 0 0.0 0.0 0.00 0.11 0.11 95 1010.0
20260502103044 40 0 0.0 0.0 0.00 0.11 0.11 95 1010.1
20260502102527 40 0 0.0 0.0 0.00 0.11 0.11 94 1010.1
20260502102027 40 0 0.0 0.0 0.01 0.11 0.11 94 1010.2
20260502101554 40 0 0.0 0.0 0.01 0.11 0.11 94 1010.0
20260502101029 40 0 0.0 0.0 0.02 0.11 0.11 94 1010.0
20260502100527 40 0 0.0 0.0 0.02 0.11 0.11 94 1010.1
20260502091030 40 0 0.0 0.0 0.02 0.09 0.09 94 1010.1
20260502090526 40 0 0.0 0.0 0.03 0.09 0.09 93 1010.2
20260502071534 40 0 0.0 0.0 0.05 0.05 0.05 91 1010.1
20260502071030 40 0 0.0 3.0 0.05 0.05 0.05 91 1010.1
20260502070527 40 0 0.0 3.0 0.05 0.05 0.05 90 1010.1
20260502070100 40 56 1.0 3.0 0.05 0.05 0.05 90 1010.4
20260502065530 40 0 0.0 3.0 0.05 0.05 0.05 89 1010.6
20260502065033 41 0 0.0 3.0 0.05 0.05 0.05 88 1010.7
20260502064546 41 56 0.0 2.0 0.05 0.05 0.05 87 1010.6